Simultaneous Nadir Overpasses (SNOs) Predictions

Prediction of SNOs between GOES-14 and AQUA Satellite Orbit:

Table of predicted SNOs for the next 14.0 days since TLE Epoch: 1/16/2021
Index Date Time (GOES-14) GOES-14 Lat,Lon AQUA Lat,Lon Distance(km) Time Diff (sec)
1 01/17/2021 20:23:52 0.07,-104.09 0.40,-102.50 180.58 80
2 01/18/2021 08:45:08 -0.07,-104.36 0.64,-107.66 375.24 80
3 01/20/2021 08:32:56 -0.07,-104.37 0.02,-104.70 38.00 80
4 01/22/2021 08:23:24 -0.07,-104.38 -0.60,-101.74 299.38 80
5 01/22/2021 20:44:48 0.06,-104.10 -0.52,-106.93 320.62 80
6 01/24/2021 20:29:56 0.06,-104.11 0.12,-103.97 16.70 80
7 01/26/2021 20:17:43 0.05,-104.11 0.69,-100.99 353.26 80
8 01/27/2021 08:39:00 -0.05,-104.38 0.30,-106.17 203.44 80
9 01/29/2021 08:29:27 -0.05,-104.38 -0.27,-103.20 133.39 80
10 01/29/2021 20:50:50 0.04,-104.11 -0.89,-108.38 485.41 80
